Location: Baller�as
(41.9020°N, 0.1554°W)
Time: 00:48:04
(UTC+00:00)

Cosmos 1535 Rocket - Pass Details

Date: 10 August 2020
Orbit: 949 x 1003 km, 83.0° (Epoch: 22 September)

Event Time Altitude Azimuth Distance (km) Brightness Sun altitude
Exits shadow 20:58:00 - 189° (S) 2,885 6.7 -18.3°
Reaches altitude 10° 20:58:32 10° 189° (S) 2,687 6.5 -18.4°
Maximum altitude 21:04:41 83° 278° (W) 967 4.5 -19.3°
Drops below altitude 10° 21:10:50 10° 6° (N) 2,683 7.3 -20.1°
Sets 21:13:19 0° 7° (N) 3,631 8.0 -20.4°
